CDT,Max TemperatureF,Mean TemperatureF,Min TemperatureF,Max Dew PointF,MeanDew PointF,Min DewpointF,Max Humidity, Mean Humidity, Min Humidity, Max Sea Level PressureIn, Mean Sea Level PressureIn, Min Sea Level PressureIn, Max VisibilityMiles, Mean VisibilityMiles, Min VisibilityMiles, Max Wind SpeedMPH, Mean Wind SpeedMPH, Max Gust SpeedMPH,PrecipitationIn, CloudCover, Events, WindDirDegrees
2014-4-1,50,40,31,39,28,22,76,60,43,30.11,30.00,29.80,10,10,10,26,15,36,0.00,3,,284
2014-4-2,48,44,39,43,36,31,100,76,69,30.12,30.04,29.92,10,10,7,21,10,24,0.04,8,Rain,77
2014-4-3,50,45,40,50,45,40,100,100,93,29.90,29.74,29.58,10,5,2,22,13,25,1.31,8,Rain-Thunderstorm,79
2014-4-4,53,44,34,53,35,30,100,83,65,30.13,29.82,29.52,10,9,1,37,18,44,0.00,8,Rain,276
2014-4-5,52,41,30,33,31,28,95,69,42,30.26,30.19,30.14,10,10,10,10,6,,0.00,2,,225
2014-4-6,59,45,32,38,33,30,94,69,34,30.14,30.05,29.91,10,10,10,15,7,18,0.00,0,,142
2014-4-7,60,50,39,45,37,29,88,68,33,29.91,29.77,29.68,10,10,10,21,7,24,0.00,2,Rain,3
2014-4-8,61,49,38,41,34,26,90,61,30,30.02,29.87,29.75,10,10,10,23,12,31,0.00,1,,317
2014-4-9,66,48,32,36,32,26,93,55,25,30.10,30.00,29.86,10,10,10,18,10,24,0.00,0,,247
2014-4-10,64,51,38,43,35,29,74,45,27,30.02,29.84,29.72,10,10,10,21,13,29,0.00,0,,269
2014-4-11,73,52,33,36,29,23,84,44,16,30.10,30.04,30.00,10,10,10,10,4,17,0.00,0,,230
2014-4-12,83,67,52,56,48,33,69,51,34,30.01,29.82,29.65,10,10,10,25,12,33,0.00,1,,175
2014-4-13,68,60,52,64,57,51,100,85,61,29.76,29.62,29.43,10,9,2,28,11,36,0.65,6,Rain-Thunderstorm,158
2014-4-14,48,41,31,50,36,26,100,97,79,30.10,29.87,29.47,10,8,0,30,21,39,0.05,7,Rain-Snow,322
2014-4-15,43,34,25,28,23,21,85,66,43,30.22,30.17,30.10,10,10,10,18,9,25,0.00,1,,291
2014-4-16,57,44,31,32,28,25,78,55,32,30.19,30.12,30.00,10,10,10,31,15,38,0.00,0,,156
2014-4-17,52,46,40,38,35,29,82,65,53,30.30,30.22,30.07,10,10,10,16,10,24,0.00,2,,269
2014-4-18,65,48,32,39,33,28,96,60,26,30.38,30.31,30.25,10,10,7,8,5,,0.00,0,,35
2014-4-19,75,55,35,39,34,27,85,49,23,30.33,30.26,30.16,10,10,10,16,10,22,0.00,0,,136
2014-4-20,82,64,45,46,42,38,75,47,26,30.20,30.12,30.03,10,10,10,17,8,23,0.00,0,,179
2014-4-21,70,64,57,63,53,44,100,72,48,30.03,29.97,29.90,10,10,5,18,8,24,0.04,4,Rain,245
2014-4-22,64,54,43,47,35,27,82,54,25,30.09,30.03,29.95,10,10,10,20,13,26,0.00,0,,336
2014-4-23,59,47,35,41,32,27,84,56,30,30.19,30.08,29.94,10,10,10,21,9,24,0.01,3,Rain,107
2014-4-24,68,56,43,55,42,32,100,63,33,29.94,29.78,29.59,10,9,3,23,12,31,0.18,5,Rain-Thunderstorm,133
2014-4-25,75,58,42,52,43,36,100,63,25,29.93,29.85,29.70,10,9,4,22,14,29,0.00,1,,271
2014-4-26,81,63,45,48,41,34,84,49,19,29.90,29.86,29.78,10,10,10,31,7,36,0.00,0,Rain-Thunderstorm,137
2014-4-27,80,62,46,66,50,34,100,74,38,29.89,29.72,29.59,10,9,1,26,17,34,0.98,5,Rain-Thunderstorm,106
2014-4-28,74,60,48,63,57,46,100,87,60,29.59,29.48,29.35,10,10,2,28,17,34,0.38,6,Rain-Thunderstorm,148
2014-4-29,55,51,46,49,47,44,100,84,73,29.69,29.54,29.43,10,10,4,18,9,25,0.01,8,Rain,204
2014-4-30,51,46,40,47,40,35,100,85,68,29.86,29.80,29.70,10,10,2,25,14,31,0.04,8,Rain,263